[[{"header":{"parameterUnit":"m.s-1","parameterCategory":1,"la1":30.2992,"la2":30.254,"lo1":-89.0895,"lo2":-89.0443,"dy":0.0025,"dx":0.0025,"nx":19,"ny":19,"refTime":"2026-05-13T03:00:00:Z","depth":0,"parameterNumber":2,"parameterNumberName":"U-component_of_WINDS"},"data":[0,0,0,1.1212,1.1213,1.1307,1.1308,1.1419,1.1419,0,0,0,0,0,0,0,0,0,0,0,1.1174,1.1174,1.1211,1.1214,1.1307,1.1308,1.1418,1.1419,0,0,0,0,0,0,0,0,0,0,0,1.1174,1.1174,1.1175,1.1214,1.1307,1.1308,1.1418,1.1352,0,0,0,0,0,0,0,0,0,0,1.1262,1.1217,1.1174,1.1175,1.1214,1.1307,1.1308,1.1349,1.1356,1.1371,0,1.1378,0,1.14,1.1426,1.1426,0,0,0,1.1222,1.1211,1.1245,1.1175,1.1215,1.1307,1.1267,1.1353,1.1361,1.138,1.138,1.1384,1.1402,1.1426,1.1427,1.148,1.148,0,0,1.1216,1.1186,1.1239,1.1249,1.123,1.1264,1.127,1.1358,1.1357,1.138,1.1387,1.1404,1.1427,1.1428,1.148,1.148,0,0,0,1.1196,1.1182,1.1215,1.1245,1.1262,1.1267,1.1274,1.1353,1.1366,1.1388,1.1405,1.1428,1.1429,1.148,1.148,1.1444,0,0,0,1.1193,1.117,1.1212,1.1194,1.126,1.1308,1.1266,1.136,1.137,1.1405,1.1428,1.143,1.1481,1.148,1.1445,1.1432,0,0,0,1.1171,1.1168,1.1178,1.1192,1.1231,1.1307,1.1325,1.1363,1.138,1.1426,1.143,1.1481,1.148,1.1446,1.1434,1.1438,0,0,0,1.114,1.1144,1.1177,1.1189,1.123,1.1283,1.1325,1.1366,1.1401,1.1428,1.1481,1.148,1.1447,1.1435,1.1439,1.1435,1.143,0,0,1.1129,1.1142,1.1152,1.1184,1.1222,1.1271,1.1306,1.1368,1.1401,1.1453,1.1455,1.1445,1.1434,1.1438,1.1416,1.1412,0,0,0,1.1138,1.1145,1.1162,1.1192,1.1239,1.1279,1.1338,1.1363,1.1408,1.142,1.1448,1.1443,1.1446,1.1446,1.1443,1.1449,1.1479,1.1479,1.1479,1.1078,1.112,1.114,1.1194,1.1225,1.1287,1.1317,1.1361,1.1394,1.14,1.1415,1.1397,1.1395,1.1393,1.1399,1.1417,1.1417,1.1417,1.1417,1.1066,1.1083,1.1129,1.1165,1.1211,1.1243,1.1306,1.133,1.1369,1.1388,1.1394,1.1411,1.1387,1.1395,1.1415,1.1415,1.1415,1.1416,1.1416,1.1031,1.1047,1.1075,1.1127,1.1163,1.122,1.1255,1.1297,1.1336,1.1342,1.1364,1.1364,1.1371,1.1349,1.1349,1.1349,1.1349,1.1349,1.1349,1.0984,1.1017,1.104,1.1092,1.1119,1.1161,1.1227,1.1257,1.13,1.1328,1.1329,1.1363,1.1377,1.1379,1.1348,1.1348,1.1349,1.1349,1.1349,1.0955,1.0969,1.1004,1.1031,1.1098,1.1133,1.1187,1.1244,1.1275,1.1292,1.1327,1.133,1.1347,1.135,1.1352,1.1316,1.1316,1.1316,1.1316,1.0925,1.0938,1.0985,1.1027,1.1073,1.1126,1.117,1.1224,1.1282,1.1305,1.1317,1.1324,1.1325,1.1342,1.1345,1.1348,1.1312,1.1312,1.1312,1.0911,1.0931,1.0957,1.1012,1.1069,1.1118,1.1161,1.1211,1.1281,1.1312,1.1325,1.1325,1.1337,1.1338,1.1367,1.1371,1.1378,0,0]},{"header":{"parameterUnit":"m.s-1","parameterCategory":1,"la1":30.2992,"la2":30.254,"lo1":-89.0895,"lo2":-89.0443,"dy":0.0025,"dx":0.0025,"nx":19,"ny":19,"refTime":"2026-05-13T03:00:00:Z","depth":0,"parameterNumber":3,"parameterNumberName":"V-component_of_WINDS"},"data":[0,0,0,-3.049,-3.0489,-3.0426,-3.0425,-3.0328,-3.0327,0,0,0,0,0,0,0,0,0,0,0,-3.0501,-3.05,-3.049,-3.0488,-3.0426,-3.0425,-3.0328,-3.0327,0,0,0,0,0,0,0,0,0,0,0,-3.0501,-3.05,-3.0499,-3.0488,-3.0426,-3.0425,-3.0329,-3.0381,0,0,0,0,0,0,0,0,0,0,-3.0445,-3.0448,-3.05,-3.0499,-3.0488,-3.0426,-3.0425,-3.0384,-3.0378,-3.035,0,-3.0326,0,-3.0325,-3.032,-3.032,0,0,0,-3.0493,-3.0453,-3.0444,-3.0499,-3.0487,-3.0426,-3.0455,-3.0381,-3.0374,-3.0342,-3.0325,-3.0321,-3.0324,-3.0319,-3.0319,-3.0148,-3.0147,0,0,-3.0497,-3.0484,-3.0448,-3.0439,-3.045,-3.0457,-3.0453,-3.0377,-3.0356,-3.0324,-3.0319,-3.0322,-3.0318,-3.0318,-3.0149,-3.0147,0,0,0,-3.0503,-3.0487,-3.048,-3.0442,-3.0433,-3.0455,-3.0451,-3.0359,-3.0358,-3.0318,-3.0321,-3.0318,-3.0317,-3.015,-3.0148,-3.0085,0,0,0,-3.0506,-3.0491,-3.0481,-3.0472,-3.0434,-3.0396,-3.0434,-3.0363,-3.0355,-3.0321,-3.0318,-3.0315,-3.0151,-3.0149,-3.0089,-3.0056,0,0,0,-3.0507,-3.0491,-3.048,-3.0472,-3.0445,-3.0397,-3.0392,-3.0362,-3.0356,-3.0319,-3.0315,-3.0152,-3.0149,-3.0093,-3.0062,-3.0007,0,0,0,-3.0505,-3.0423,-3.0478,-3.0388,-3.0445,-3.036,-3.0392,-3.0329,-3.029,-3.0317,-3.0151,-3.0148,-3.0094,-3.0066,-3.0011,-2.9956,-2.9933,0,0,-3.0394,-3.0409,-3.0357,-3.0405,-3.0307,-3.0371,-3.0262,-3.0237,-3.0244,-3.0179,-3.0175,-3.0088,-3.0063,-3.0008,-2.9812,-2.9794,0,0,0,-3.0318,-3.028,-3.0257,-3.022,-3.0201,-3.0181,-3.0175,-3.0166,-3.0112,-3.0209,-3.0055,-3.004,-3.0008,-2.9982,-2.9966,-2.9939,-3.0137,-3.0137,-3.0137,-3.014,-3.0157,-3.0071,-3.0079,-3.0043,-3.0039,-3.001,-2.9997,-3.0021,-2.9985,-2.9964,-2.9844,-2.9814,-2.9802,-2.9773,-2.9939,-2.9939,-2.9938,-2.9938,-2.9978,-2.9926,-2.9964,-2.9894,-2.9911,-2.9851,-2.9844,-2.9863,-2.9809,-2.986,-2.9833,-2.9886,-2.9782,-2.9757,-2.9934,-2.9934,-2.9935,-2.9936,-2.9936,-2.9862,-2.984,-2.9833,-2.9783,-2.9742,-2.9754,-2.9701,-2.9717,-2.9732,-2.9706,-2.9685,-2.9686,-2.9687,-2.9696,-2.9695,-2.9695,-2.9694,-2.9694,-2.9694,-2.9743,-2.9737,-2.9691,-2.9666,-2.9646,-2.9621,-2.9617,-2.9596,-2.9577,-2.9593,-2.9593,-2.962,-2.977,-2.9806,-2.9687,-2.9688,-2.9689,-2.969,-2.969,-2.9567,-2.9611,-2.954,-2.952,-2.9492,-2.945,-2.9474,-2.9431,-2.9417,-2.939,-2.9424,-2.9533,-2.9548,-2.956,-2.959,-2.9422,-2.9422,-2.9422,-2.9422,-2.9467,-2.9478,-2.9411,-2.9377,-2.9347,-2.9362,-2.9279,-2.9276,-2.9278,-2.927,-2.9297,-2.9339,-2.9351,-2.9359,-2.9376,-2.9403,-2.9192,-2.9192,-2.9192,-2.9359,-2.9369,-2.9296,-2.9302,-2.9282,-2.9264,-2.9187,-2.9145,-2.9156,-2.9183,-2.9263,-2.9273,-2.934,-2.9362,-2.9386,-2.9412,-2.9464,0,0]}]]